[[{"header":{"parameterUnit":"m.s-1","parameterCategory":1,"la1":30.2992,"la2":30.254,"lo1":-89.0895,"lo2":-89.0443,"dy":0.0025,"dx":0.0025,"nx":19,"ny":19,"refTime":"2026-03-12T21:00:00:Z","depth":0,"parameterNumber":2,"parameterNumberName":"U-component_of_WINDS"},"data":[0,0,0,0.2904,0.2904,0.2893,0.2893,0.2879,0.2879,0,0,0,0,0,0,0,0,0,0,0,0.2906,0.2906,0.2904,0.2904,0.2893,0.2893,0.2879,0.2879,0,0,0,0,0,0,0,0,0,0,0,0.2906,0.2906,0.2906,0.2904,0.2893,0.2893,0.2879,0.2888,0,0,0,0,0,0,0,0,0,0,0.2898,0.2899,0.2906,0.2906,0.2904,0.2893,0.2893,0.2888,0.2887,0.2884,0,0.288,0,0.2879,0.2878,0.2878,0,0,0,0.2904,0.2899,0.2898,0.2906,0.2904,0.2893,0.2898,0.2887,0.2886,0.2882,0.288,0.2879,0.2879,0.2878,0.2878,0.2856,0.2856,0,0,0.2905,0.2904,0.2898,0.2897,0.2898,0.2899,0.2898,0.2887,0.2884,0.288,0.2879,0.2879,0.2878,0.2878,0.2856,0.2856,0,0,0,0.2906,0.2904,0.2903,0.2897,0.2896,0.2898,0.2898,0.2884,0.2884,0.2879,0.2879,0.2878,0.2878,0.2856,0.2856,0.2848,0,0,0,0.2907,0.2905,0.2903,0.2902,0.2896,0.289,0.2895,0.2885,0.2884,0.2879,0.2878,0.2878,0.2857,0.2856,0.2849,0.2845,0,0,0,0.2907,0.2905,0.2903,0.2902,0.2897,0.289,0.2889,0.2885,0.2884,0.2878,0.2877,0.2857,0.2856,0.2849,0.2845,0.2839,0,0,0,0.2907,0.2895,0.2903,0.289,0.2897,0.2885,0.2889,0.288,0.2875,0.2878,0.2857,0.2856,0.285,0.2846,0.2839,0.2832,0.283,0,0,0.2892,0.2894,0.2886,0.2893,0.2879,0.2887,0.2873,0.2868,0.2869,0.2861,0.286,0.2849,0.2845,0.2839,0.2815,0.2813,0,0,0,0.2881,0.2875,0.2872,0.2867,0.2864,0.2862,0.2861,0.286,0.2853,0.2864,0.2845,0.2843,0.2839,0.2836,0.2834,0.2831,0.2855,0.2855,0.2855,0.2856,0.2858,0.2847,0.2848,0.2843,0.2843,0.284,0.2838,0.2841,0.2837,0.2834,0.2819,0.2816,0.2814,0.2811,0.2831,0.2831,0.2831,0.2831,0.2833,0.2826,0.2832,0.2823,0.2826,0.2818,0.2818,0.2821,0.2815,0.2821,0.2818,0.2824,0.2812,0.2809,0.283,0.2831,0.2831,0.2831,0.2831,0.2816,0.2813,0.2813,0.2807,0.2802,0.2805,0.2799,0.2802,0.2805,0.2802,0.28,0.28,0.28,0.2801,0.2801,0.2801,0.2801,0.2801,0.2801,0.2798,0.2798,0.2793,0.279,0.2789,0.2787,0.2788,0.2786,0.2785,0.2788,0.2788,0.2792,0.281,0.2814,0.28,0.28,0.28,0.28,0.28,0.2772,0.2779,0.2771,0.2769,0.2768,0.2764,0.2769,0.2766,0.2765,0.2762,0.2768,0.2781,0.2783,0.2784,0.2788,0.2767,0.2767,0.2767,0.2767,0.2757,0.2759,0.2752,0.275,0.2748,0.2752,0.2743,0.2745,0.2748,0.2748,0.2752,0.2758,0.2759,0.276,0.2762,0.2765,0.274,0.274,0.274,0.2742,0.2744,0.2735,0.2739,0.2739,0.2739,0.2731,0.2729,0.2734,0.2739,0.2749,0.275,0.2758,0.2761,0.2764,0.2767,0.2773,0,0]},{"header":{"parameterUnit":"m.s-1","parameterCategory":1,"la1":30.2992,"la2":30.254,"lo1":-89.0895,"lo2":-89.0443,"dy":0.0025,"dx":0.0025,"nx":19,"ny":19,"refTime":"2026-03-12T21:00:00:Z","depth":0,"parameterNumber":3,"parameterNumberName":"V-component_of_WINDS"},"data":[0,0,0,-9.7322,-9.7327,-9.7557,-9.7558,-9.7859,-9.7862,0,0,0,0,0,0,0,0,0,0,0,-9.7263,-9.7265,-9.7322,-9.7328,-9.7557,-9.7558,-9.7859,-9.7862,0,0,0,0,0,0,0,0,0,0,0,-9.7262,-9.7265,-9.7268,-9.7329,-9.7557,-9.7558,-9.7858,-9.7681,0,0,0,0,0,0,0,0,0,0,-9.7456,-9.7411,-9.7264,-9.7268,-9.733,-9.7556,-9.7558,-9.7672,-9.7692,-9.776,0,-9.7826,0,-9.785,-9.7883,-9.7884,0,0,0,-9.732,-9.7395,-9.745,-9.7268,-9.7332,-9.7556,-9.7451,-9.7683,-9.7706,-9.7786,-9.7831,-9.7841,-9.7855,-9.7885,-9.7887,-9.8316,-9.8319,0,0,-9.7307,-9.7308,-9.7434,-9.7465,-9.7434,-9.7444,-9.7458,-9.7697,-9.7743,-9.7832,-9.7848,-9.786,-9.7887,-9.789,-9.8314,-9.8317,0,0,0,-9.7276,-9.7299,-9.7348,-9.7452,-9.7493,-9.7451,-9.7467,-9.7732,-9.7748,-9.7851,-9.7863,-9.7889,-9.7893,-9.8312,-9.8315,-9.8436,0,0,0,-9.7268,-9.7281,-9.7342,-9.7345,-9.749,-9.7617,-9.7498,-9.7732,-9.7759,-9.7862,-9.7889,-9.7896,-9.8309,-9.8314,-9.8427,-9.8492,0,0,0,-9.7245,-9.7278,-9.7315,-9.7344,-9.7444,-9.7613,-9.7642,-9.7738,-9.7767,-9.7885,-9.7897,-9.8307,-9.8313,-9.8419,-9.8479,-9.8607,0,0,0,-9.7218,-9.7415,-9.7317,-9.7541,-9.7442,-9.7687,-9.7641,-9.7822,-9.7938,-9.7891,-9.8309,-9.8315,-9.8417,-9.8471,-9.8599,-9.8716,-9.8765,0,0,-9.7466,-9.7445,-9.7577,-9.7496,-9.7759,-9.7652,-9.7932,-9.8034,-9.8042,-9.8223,-9.8234,-9.843,-9.8478,-9.8606,-9.9038,-9.9077,0,0,0,-9.7655,-9.775,-9.782,-9.7933,-9.802,-9.8099,-9.816,-9.8198,-9.8353,-9.8137,-9.851,-9.8539,-9.8614,-9.8669,-9.8703,-9.8767,-9.8341,-9.834,-9.834,-9.8005,-9.801,-9.8229,-9.8262,-9.8372,-9.8435,-9.8524,-9.8585,-9.8553,-9.8642,-9.8696,-9.8958,-9.9024,-9.9049,-9.9116,-9.8757,-9.8758,-9.8758,-9.8759,-9.8369,-9.8505,-9.8464,-9.8662,-9.8665,-9.8829,-9.8897,-9.887,-9.9022,-9.8917,-9.8983,-9.8868,-9.9092,-9.915,-9.8768,-9.8766,-9.8765,-9.8764,-9.8763,-9.8599,-9.8666,-9.8713,-9.8879,-9.9006,-9.9031,-9.9181,-9.9176,-9.9172,-9.9238,-9.9295,-9.9293,-9.9291,-9.9265,-9.9266,-9.9267,-9.9268,-9.9269,-9.9269,-9.882,-9.8869,-9.8999,-9.9111,-9.9185,-9.928,-9.9347,-9.9418,-9.9495,-9.948,-9.948,-9.944,-9.9113,-9.9031,-9.9284,-9.9281,-9.9279,-9.9278,-9.9277,-9.9188,-9.9106,-9.9305,-9.938,-9.9512,-9.9639,-9.9633,-9.9779,-9.9836,-9.991,-9.9858,-9.9617,-9.9592,-9.9566,-9.9498,-9.9856,-9.9856,-9.9856,-9.9856,-9.9383,-9.9372,-9.9578,-9.9698,-9.9814,-9.983,-10.0054,-10.0108,-10.015,-10.0186,-10.0133,-10.0043,-10.0016,-10.0008,-9.9972,-9.9909,-10.0363,-10.0364,-10.0364,-9.9611,-9.9611,-9.9805,-9.985,-9.9954,-10.0042,-10.0253,-10.0389,-10.0419,-10.0384,-10.0214,-10.0192,-10.0047,-9.9999,-9.996,-9.9904,-9.9788,0,0]}]]